Home   Weather   Ljubljana   Past weeks

Flag for Slovenia Past Weather in Ljubljana, Slovenia — Yesterday and Last 2 Weeks

Now
47 °F

Cool.


Feels Like: 46 °F
Forecast: 38 / 50 °F
Wind: 3 mph from West

Location: Ljubljana / Bezigrad

Current Time: Feb 28, 2017 at 12:05:12 am

Latest Report: Feb 27, 2017 at 11:00 pm


Visibility: N/A

Pressure: 29.90 "Hg

Humidity: 67%

Dew Point: 37 °F

Location of LjubljanaLocation

Past Weather in Ljubljana — Graph

°F

Ljubljana Temperature Yesterday

Maximum temperature yesterday: 57 °F (at 1:00 pm)
Minimum temperature yesterday: 34 °F (at 3:00 am)
Average temperature yesterday: 45 °F

High & Low Weather Summary for the Past Weeks

 TemperatureHumidityPressure
High57 °F (Feb 27, 1:00 pm)97% (Feb 15, 7:00 am)30.70 "Hg (Feb 15, 7:00 am)
Low27 °F (Feb 16, 7:00 am)24% (Feb 27, 1:00 pm)29.73 "Hg (Feb 24, 6:00 am)
Average41 °F74%30.25 "Hg
* Reported Feb 12 10:00 pm — Feb 27 10:00 pm, Ljubljana, Weather by CustomWeather, © 2017

Note: Actual official high and low records may vary slightly from our data, if they occured in-between our weather recording intervals... More about our weather records

Advertising

Ljubljana Weather History for the Previous 24 Hours

Scroll right to see more
 ConditionsComfort  
Time TempWeatherWind HumidityBarometerVisibility
10:00 pm
Mon, Feb 27
47 °FPassing clouds.2 mph63%29.92 "Hg19 mi
9:00 pm47 °FPassing clouds.2 mph62%29.93 "Hg19 mi
8:00 pm47 °FPassing clouds.5 mph64%29.94 "Hg19 mi
7:00 pm48 °FPassing clouds.5 mph63%29.93 "Hg25 mi
6:00 pm50 °FPassing clouds.5 mph59%29.93 "Hg31 mi
5:00 pm52 °FPartly sunny.5 mph52%29.91 "Hg31 mi
4:00 pm55 °FPartly sunny.5 mph34%29.91 "Hg31 mi
3:00 pm55 °FPartly sunny.5 mph26%29.93 "Hg31 mi
2:00 pm55 °FPartly sunny.5 mphN/AN/A31 mi
1:00 pm57 °FScattered clouds.2 mph24%29.96 "Hg31 mi
12:00 pm55 °FScattered clouds.5 mph25%29.99 "Hg31 mi
11:00 am51 °FPartly sunny.1 mph50%30.02 "Hg31 mi
10:00 am41 °FPartly sunny.No wind70%30.06 "Hg31 mi
9:00 am37 °FPartly sunny.1 mph79%30.08 "Hg25 mi
8:00 am35 °FPartly sunny.1 mph85%30.10 "Hg19 mi
7:00 am34 °FPartly sunny.No wind86%30.09 "Hg19 mi
6:00 am35 °FOvercast.No wind84%30.10 "Hg12 mi
5:00 am36 °FOvercast.No wind82%30.10 "Hg12 mi
4:00 am35 °FChilly.No wind84%30.11 "HgN/A
3:00 am34 °FChilly.1 mph87%30.12 "HgN/A
Weather by CustomWeather, © 2017

See weather overviewHow to use our weather pages